CXBCK SUPE-SUMO

Flight info

Callsign CXBCK
Flight time 2h 2m
Altitude 1500
Route DCT SURO DCT CASTILLOS DCT PUNTA DEL DIABLO DCT CHUY DCT LA CHARQUEADA DCT VERGARA DCT
Aircraft C172/L-SFG/C

Departure

Time 2026-05-05 13:59
Airport El Jagüel / Punta del Este Airport (SUPE)

Arrival

Time 2026-05-05 16:02
Airport Cerro Largo International Airport (SUMO)
Time Latitude Longitude Altitude Speed Heading
2026-05-05 13:42 -34.91452 -54.91809 56 ft 0 kts 278°
2026-05-05 13:47 -34.91452 -54.91810 56 ft 1 kts 279°
2026-05-05 13:48 -34.91423 -54.91841 57 ft 12 kts 349°
2026-05-05 13:48 -34.91363 -54.91913 58 ft 13 kts 278°
2026-05-05 13:48 -34.91361 -54.91952 62 ft 0 kts 278°
2026-05-05 13:57 -34.91360 -54.91957 61 ft 3 kts 277°
2026-05-05 13:57 -34.91358 -54.92017 63 ft 11 kts 271°
2026-05-05 13:58 -34.91339 -54.92053 62 ft 6 kts 14°
2026-05-05 13:58 -34.91221 -54.92041 59 ft 39 kts
2026-05-05 13:58 -34.90819 -54.92000 99 ft 68 kts 359°
2026-05-05 13:58 -34.90336 -54.91958 270 ft 69 kts 359°
2026-05-05 13:59 -34.89400 -54.91724 522 ft 69 kts 12°
2026-05-05 13:59 -34.88984 -54.91416 680 ft 70 kts 41°
2026-05-05 14:00 -34.88211 -54.90566 928 ft 80 kts 38°
2026-05-05 14:00 -34.87823 -54.90108 1106 ft 77 kts 39°
2026-05-05 14:00 -34.87392 -54.89685 1206 ft 80 kts 31°
2026-05-05 14:00 -34.86941 -54.89292 1331 ft 82 kts 30°
2026-05-05 14:01 -34.86476 -54.88869 1428 ft 90 kts 33°
2026-05-05 14:01 -34.85949 -54.88351 1464 ft 101 kts 35°
2026-05-05 14:01 -34.85371 -54.87786 1494 ft 109 kts 35°
2026-05-05 14:01 -34.84775 -54.87197 1502 ft 113 kts 35°
2026-05-05 14:02 -34.84145 -54.86601 1503 ft 116 kts 33°
2026-05-05 14:02 -34.83493 -54.86009 1502 ft 118 kts 33°
2026-05-05 14:02 -34.82845 -54.85418 1509 ft 115 kts 33°
2026-05-05 14:02 -34.82183 -54.84820 1507 ft 121 kts 33°
2026-05-05 14:03 -34.81501 -54.84202 1511 ft 122 kts 33°
2026-05-05 14:03 -34.80828 -54.83596 1509 ft 119 kts 33°
2026-05-05 14:03 -34.80159 -54.82993 1513 ft 120 kts 33°
2026-05-05 14:03 -34.79488 -54.82379 1506 ft 121 kts 33°
2026-05-05 14:04 -34.78821 -54.81777 1508 ft 118 kts 33°
2026-05-05 14:04 -34.78164 -54.81184 1499 ft 117 kts 35°
2026-05-05 14:04 -34.77588 -54.80505 1494 ft 114 kts 44°
2026-05-05 14:04 -34.77052 -54.79791 1498 ft 116 kts 46°
2026-05-05 14:05 -34.76515 -54.79043 1498 ft 118 kts 46°
2026-05-05 14:05 -34.75977 -54.78287 1498 ft 118 kts 46°
2026-05-05 14:05 -34.75449 -54.77543 1505 ft 116 kts 50°
2026-05-05 14:05 -34.75007 -54.76709 1500 ft 114 kts 57°
2026-05-05 14:06 -34.74613 -54.75878 1503 ft 116 kts 59°
2026-05-05 14:06 -34.74256 -54.74985 1505 ft 118 kts 61°
2026-05-05 14:06 -34.73894 -54.74098 1501 ft 116 kts 62°
2026-05-05 14:06 -34.73535 -54.73231 1499 ft 115 kts 61°
2026-05-05 14:07 -34.73178 -54.72358 1501 ft 116 kts 62°
2026-05-05 14:07 -34.72821 -54.71496 1500 ft 113 kts 61°
2026-05-05 14:07 -34.72469 -54.70631 1504 ft 115 kts 62°
2026-05-05 14:07 -34.72106 -54.69753 1496 ft 117 kts 61°
2026-05-05 14:08 -34.71745 -54.68867 1497 ft 116 kts 61°
2026-05-05 14:08 -34.71393 -54.68005 1502 ft 113 kts 61°
2026-05-05 14:08 -34.71047 -54.67135 1494 ft 114 kts 62°
2026-05-05 14:08 -34.70698 -54.66271 1502 ft 115 kts 61°
2026-05-05 14:09 -34.70348 -54.65406 1495 ft 113 kts 61°
2026-05-05 14:09 -34.70004 -54.64558 1495 ft 111 kts 61°
2026-05-05 14:09 -34.69667 -54.63719 1499 ft 110 kts 61°
2026-05-05 14:09 -34.69328 -54.62882 1501 ft 112 kts 61°
2026-05-05 14:10 -34.68982 -54.62031 1501 ft 113 kts 61°
2026-05-05 14:10 -34.68647 -54.61177 1504 ft 113 kts 62°
2026-05-05 14:10 -34.68310 -54.60308 1498 ft 114 kts 62°
2026-05-05 14:10 -34.67973 -54.59443 1501 ft 113 kts 62°
2026-05-05 14:11 -34.67636 -54.58577 1504 ft 114 kts 62°
2026-05-05 14:11 -34.67291 -54.57696 1511 ft 117 kts 62°
2026-05-05 14:11 -34.66938 -54.56804 1511 ft 117 kts 62°
2026-05-05 14:11 -34.66578 -54.55905 1502 ft 117 kts 62°
2026-05-05 14:12 -34.66231 -54.55033 1496 ft 112 kts 62°
2026-05-05 14:12 -34.65871 -54.54217 1497 ft 108 kts 55°
2026-05-05 14:12 -34.65487 -54.53451 1506 ft 106 kts 56°
2026-05-05 14:12 -34.65079 -54.52706 1503 ft 106 kts 50°
2026-05-05 14:13 -34.64614 -54.51977 1500 ft 111 kts 50°
2026-05-05 14:13 -34.64138 -54.51218 1506 ft 116 kts 50°
2026-05-05 14:13 -34.63642 -54.50439 1508 ft 117 kts 49°
2026-05-05 14:13 -34.63158 -54.49667 1508 ft 114 kts 50°
2026-05-05 14:14 -34.62677 -54.48908 1500 ft 113 kts 50°
2026-05-05 14:14 -34.62202 -54.48162 1503 ft 112 kts 50°
2026-05-05 14:14 -34.61723 -54.47399 1504 ft 115 kts 50°
2026-05-05 14:14 -34.61240 -54.46633 1506 ft 115 kts 50°
2026-05-05 14:15 -34.60752 -54.45877 1498 ft 111 kts 48°
2026-05-05 14:15 -34.60248 -54.45212 1494 ft 106 kts 44°
2026-05-05 14:15 -34.59743 -54.44563 1507 ft 107 kts 44°
2026-05-05 14:15 -34.59213 -54.43880 1508 ft 114 kts 44°
2026-05-05 14:16 -34.58679 -54.43193 1505 ft 109 kts 43°
2026-05-05 14:16 -34.58156 -54.42521 1506 ft 111 kts 43°
2026-05-05 14:16 -34.57607 -54.41876 1503 ft 110 kts 40°
2026-05-05 14:16 -34.57060 -54.41238 1504 ft 110 kts 40°
2026-05-05 14:17 -34.56512 -54.40588 1507 ft 112 kts 41°
2026-05-05 14:17 -34.55958 -54.39935 1502 ft 110 kts 40°
2026-05-05 14:17 -34.55416 -54.39294 1484 ft 107 kts 41°
2026-05-05 14:17 -34.54866 -54.38649 1505 ft 114 kts 40°
2026-05-05 14:18 -34.54284 -54.37970 1509 ft 117 kts 41°
2026-05-05 14:18 -34.53692 -54.37277 1499 ft 117 kts 41°
2026-05-05 14:18 -34.53111 -54.36596 1506 ft 117 kts 41°
2026-05-05 14:18 -34.52513 -54.35897 1495 ft 121 kts 41°
2026-05-05 14:19 -34.51919 -54.35210 1499 ft 115 kts 41°
2026-05-05 14:19 -34.51357 -54.34540 1491 ft 111 kts 44°
2026-05-05 14:19 -34.50856 -54.33849 1500 ft 108 kts 45°
2026-05-05 14:19 -34.50354 -54.33141 1491 ft 112 kts 46°
2026-05-05 14:20 -34.49879 -54.32424 1526 ft 109 kts 53°
2026-05-05 14:20 -34.49550 -54.31536 1513 ft 119 kts 70°
2026-05-05 14:20 -34.49287 -54.30593 1494 ft 118 kts 69°
2026-05-05 14:20 -34.49041 -54.29655 1484 ft 118 kts 72°
2026-05-05 14:21 -34.48868 -54.28681 1462 ft 117 kts 78°
2026-05-05 14:21 -34.48761 -54.27709 1411 ft 117 kts 83°
2026-05-05 14:21 -34.48433 -54.26899 1489 ft 105 kts 37°
2026-05-05 14:21 -34.47785 -54.26578 1585 ft 99 kts 359°
2026-05-05 14:22 -34.47183 -54.26880 1597 ft 97 kts 308°
2026-05-05 14:22 -34.46917 -54.27655 1468 ft 103 kts 279°
2026-05-05 14:22 -34.46986 -54.28496 1515 ft 101 kts 251°
2026-05-05 14:22 -34.47417 -54.29148 1560 ft 103 kts 216°
2026-05-05 14:23 -34.48121 -54.29298 1565 ft 108 kts 170°
2026-05-05 14:23 -34.48714 -54.28766 1641 ft 108 kts 120°
2026-05-05 14:23 -34.48830 -54.27858 1571 ft 114 kts 78°
2026-05-05 14:23 -34.48460 -54.27056 1545 ft 108 kts 45°
2026-05-05 14:24 -34.47957 -54.26359 1562 ft 110 kts 45°
2026-05-05 14:24 -34.47447 -54.25670 1582 ft 113 kts 45°
2026-05-05 14:24 -34.46932 -54.24941 1578 ft 116 kts 46°
2026-05-05 14:24 -34.46396 -54.24200 1582 ft 116 kts 45°
2026-05-05 14:25 -34.45866 -54.23460 1576 ft 118 kts 46°
2026-05-05 14:25 -34.45345 -54.22715 1577 ft 115 kts 49°
2026-05-05 14:25 -34.44850 -54.21949 1578 ft 116 kts 49°
2026-05-05 14:25 -34.44364 -54.21175 1573 ft 115 kts 50°
2026-05-05 14:26 -34.43876 -54.20417 1574 ft 114 kts 49°
2026-05-05 14:26 -34.43394 -54.19654 1572 ft 115 kts 49°
2026-05-05 14:26 -34.42907 -54.18880 1571 ft 115 kts 50°
2026-05-05 14:26 -34.42421 -54.18121 1575 ft 114 kts 49°
2026-05-05 14:27 -34.41930 -54.17341 1568 ft 119 kts 50°
2026-05-05 14:27 -34.41436 -54.16564 1558 ft 114 kts 50°
2026-05-05 14:27 -34.40965 -54.15819 1554 ft 109 kts 49°
2026-05-05 14:27 -34.40490 -54.15126 1551 ft 106 kts 48°
2026-05-05 14:28 -34.40024 -54.14439 1556 ft 107 kts 48°
2026-05-05 14:28 -34.39534 -54.13720 1551 ft 111 kts 47°
2026-05-05 14:28 -34.39036 -54.12981 1567 ft 116 kts 47°
2026-05-05 14:28 -34.38520 -54.12206 1562 ft 119 kts 47°
2026-05-05 14:29 -34.38007 -54.11427 1570 ft 118 kts 47°
2026-05-05 14:29 -34.37498 -54.10651 1559 ft 116 kts 47°
2026-05-05 14:29 -34.37007 -54.09918 1559 ft 110 kts 47°
2026-05-05 14:29 -34.36526 -54.09182 1558 ft 113 kts 48°
2026-05-05 14:30 -34.36040 -54.08449 1547 ft 108 kts 46°
2026-05-05 14:30 -34.35536 -54.07792 1557 ft 108 kts 42°
2026-05-05 14:30 -34.35014 -54.07129 1548 ft 109 kts 42°
2026-05-05 14:30 -34.34500 -54.06482 1545 ft 105 kts 42°
2026-05-05 14:31 -34.33983 -54.05818 1563 ft 113 kts 43°
2026-05-05 14:31 -34.33434 -54.05125 1558 ft 113 kts 43°
2026-05-05 14:31 -34.32874 -54.04427 1564 ft 118 kts 42°
2026-05-05 14:31 -34.32308 -54.03708 1575 ft 119 kts 43°
2026-05-05 14:32 -34.31737 -54.02981 1560 ft 117 kts 42°
2026-05-05 14:32 -34.31188 -54.02287 1562 ft 113 kts 43°
2026-05-05 14:32 -34.30639 -54.01599 1567 ft 117 kts 43°
2026-05-05 14:32 -34.30063 -54.00883 1572 ft 119 kts 43°
2026-05-05 14:33 -34.29488 -54.00178 1564 ft 115 kts 42°
2026-05-05 14:33 -34.28937 -53.99487 1559 ft 114 kts 42°
2026-05-05 14:33 -34.28389 -53.98802 1565 ft 114 kts 43°
2026-05-05 14:33 -34.27833 -53.98106 1563 ft 115 kts 42°
2026-05-05 14:34 -34.27272 -53.97411 1570 ft 116 kts 42°
2026-05-05 14:34 -34.26711 -53.96704 1564 ft 116 kts 43°
2026-05-05 14:34 -34.26155 -53.96014 1562 ft 114 kts 42°
2026-05-05 14:34 -34.25607 -53.95330 1554 ft 111 kts 43°
2026-05-05 14:35 -34.25086 -53.94675 1548 ft 106 kts 43°
2026-05-05 14:35 -34.24564 -53.94022 1564 ft 113 kts 43°
2026-05-05 14:35 -34.23994 -53.93312 1569 ft 121 kts 43°
2026-05-05 14:35 -34.23421 -53.92591 1564 ft 115 kts 43°
2026-05-05 14:36 -34.22878 -53.91909 1562 ft 111 kts 43°
2026-05-05 14:36 -34.22334 -53.91222 1572 ft 117 kts 43°
2026-05-05 14:36 -34.21790 -53.90471 1568 ft 119 kts 49°
2026-05-05 14:36 -34.21277 -53.89674 1572 ft 121 kts 49°
2026-05-05 14:37 -34.20788 -53.88857 1566 ft 119 kts 57°
2026-05-05 14:37 -34.20448 -53.87955 1563 ft 118 kts 65°
2026-05-05 14:37 -34.20150 -53.87036 1571 ft 118 kts 66°
2026-05-05 14:37 -34.19840 -53.86112 1578 ft 120 kts 65°
2026-05-05 14:38 -34.19525 -53.85153 1579 ft 125 kts 65°
2026-05-05 14:38 -34.19214 -53.84168 1572 ft 124 kts 69°
2026-05-05 14:38 -34.19010 -53.83173 1571 ft 121 kts 75°
2026-05-05 14:38 -34.18824 -53.82215 1552 ft 113 kts 74°
2026-05-05 14:39 -34.18646 -53.81298 1558 ft 114 kts 74°
2026-05-05 14:39 -34.18464 -53.80372 1554 ft 115 kts 74°
2026-05-05 14:39 -34.18286 -53.79432 1549 ft 114 kts 75°
2026-05-05 14:39 -34.18110 -53.78571 1535 ft 107 kts 74°
2026-05-05 14:40 -34.17944 -53.77713 1539 ft 105 kts 74°
2026-05-05 14:40 -34.17726 -53.76860 1539 ft 108 kts 67°
2026-05-05 14:40 -34.17440 -53.76010 1536 ft 110 kts 63°
2026-05-05 14:40 -34.17140 -53.75174 1541 ft 107 kts 63°
2026-05-05 14:41 -34.16837 -53.74328 1551 ft 114 kts 63°
2026-05-05 14:41 -34.16520 -53.73454 1557 ft 116 kts 64°
2026-05-05 14:41 -34.16189 -53.72540 1567 ft 121 kts 63°
2026-05-05 14:41 -34.15851 -53.71605 1563 ft 120 kts 64°
2026-05-05 14:42 -34.15516 -53.70685 1561 ft 119 kts 63°
2026-05-05 14:42 -34.15192 -53.69785 1568 ft 117 kts 63°
2026-05-05 14:42 -34.14816 -53.68892 1565 ft 121 kts 55°
2026-05-05 14:42 -34.14380 -53.68017 1570 ft 122 kts 56°
2026-05-05 14:43 -34.13918 -53.67172 1565 ft 119 kts 51°
2026-05-05 14:43 -34.13599 -53.66631 1563 ft 119 kts 52°
2026-05-05 14:43 -34.13118 -53.65820 1563 ft 118 kts 51°
2026-05-05 14:43 -34.12648 -53.65020 1574 ft 116 kts 52°
2026-05-05 14:44 -34.12177 -53.64224 1574 ft 117 kts 52°
2026-05-05 14:44 -34.11700 -53.63424 1576 ft 119 kts 51°
2026-05-05 14:44 -34.11200 -53.62591 1581 ft 126 kts 51°
2026-05-05 14:44 -34.10684 -53.61720 1584 ft 128 kts 51°
2026-05-05 14:45 -34.10173 -53.60856 1579 ft 124 kts 52°
2026-05-05 14:45 -34.09659 -53.60001 1594 ft 128 kts 52°
2026-05-05 14:45 -34.09133 -53.59114 1596 ft 131 kts 51°
2026-05-05 14:45 -34.08618 -53.58215 1590 ft 128 kts 52°
2026-05-05 14:46 -34.08099 -53.57361 1585 ft 125 kts 52°
2026-05-05 14:46 -34.07600 -53.56529 1573 ft 119 kts 49°
2026-05-05 14:46 -34.07022 -53.55843 1578 ft 117 kts 40°
2026-05-05 14:46 -34.06353 -53.55308 1582 ft 116 kts 16°
2026-05-05 14:47 -34.05564 -53.55094 1572 ft 116 kts
2026-05-05 14:47 -34.04770 -53.54959 1583 ft 117 kts
2026-05-05 14:47 -34.03949 -53.54820 1580 ft 120 kts
2026-05-05 14:47 -34.03129 -53.54663 1571 ft 117 kts
2026-05-05 14:48 -34.02331 -53.54509 1589 ft 118 kts
2026-05-05 14:48 -34.01525 -53.54340 1571 ft 114 kts
2026-05-05 14:48 -34.00775 -53.54183 1562 ft 106 kts
2026-05-05 14:48 -34.00046 -53.54032 1564 ft 107 kts
2026-05-05 14:49 -33.99317 -53.53889 1553 ft 105 kts
2026-05-05 14:49 -33.98603 -53.53737 1554 ft 103 kts
2026-05-05 14:49 -33.97903 -53.53584 1549 ft 101 kts
2026-05-05 14:49 -33.97205 -53.53438 1554 ft 104 kts
2026-05-05 14:50 -33.96489 -53.53298 1549 ft 103 kts
2026-05-05 14:50 -33.95772 -53.53156 1565 ft 107 kts
2026-05-05 14:50 -33.95024 -53.53004 1563 ft 111 kts
2026-05-05 14:50 -33.94271 -53.52846 1558 ft 108 kts
2026-05-05 14:51 -33.93533 -53.52698 1554 ft 107 kts
2026-05-05 14:51 -33.92809 -53.52550 1554 ft 104 kts
2026-05-05 14:51 -33.92101 -53.52403 1550 ft 102 kts
2026-05-05 14:51 -33.91407 -53.52258 1548 ft 100 kts
2026-05-05 14:52 -33.90696 -53.52109 1558 ft 111 kts
2026-05-05 14:52 -33.89933 -53.51952 1563 ft 108 kts
2026-05-05 14:52 -33.89200 -53.51796 1553 ft 108 kts
2026-05-05 14:52 -33.88457 -53.51640 1557 ft 109 kts
2026-05-05 14:53 -33.87731 -53.51493 1552 ft 103 kts
2026-05-05 14:53 -33.87008 -53.51351 1560 ft 108 kts
2026-05-05 14:53 -33.86281 -53.51141 1558 ft 107 kts 12°
2026-05-05 14:53 -33.85560 -53.50904 1562 ft 109 kts 12°
2026-05-05 14:54 -33.84826 -53.50666 1561 ft 108 kts 13°
2026-05-05 14:54 -33.84108 -53.50384 1569 ft 111 kts 14°
2026-05-05 14:54 -33.83349 -53.50077 1575 ft 118 kts 15°
2026-05-05 14:54 -33.82577 -53.49770 1573 ft 116 kts 15°
2026-05-05 14:55 -33.81805 -53.49469 1574 ft 117 kts 14°
2026-05-05 14:55 -33.81049 -53.49164 1576 ft 113 kts 14°
2026-05-05 14:55 -33.80292 -53.48858 1577 ft 116 kts 15°
2026-05-05 14:55 -33.79530 -53.48559 1569 ft 115 kts 15°
2026-05-05 14:56 -33.78779 -53.48260 1577 ft 115 kts 15°
2026-05-05 14:56 -33.78022 -53.47957 1566 ft 114 kts 14°
2026-05-05 14:56 -33.77287 -53.47663 1557 ft 108 kts 15°
2026-05-05 14:56 -33.76591 -53.47378 1550 ft 103 kts 14°
2026-05-05 14:57 -33.75918 -53.47099 1542 ft 103 kts 14°
2026-05-05 14:57 -33.75238 -53.46819 1536 ft 103 kts 15°
2026-05-05 14:57 -33.74576 -53.46544 1542 ft 101 kts 15°
2026-05-05 14:57 -33.73910 -53.46265 1557 ft 105 kts 15°
2026-05-05 14:58 -33.73196 -53.45969 1562 ft 111 kts 14°
2026-05-05 14:58 -33.72448 -53.45664 1564 ft 113 kts 10°
2026-05-05 14:58 -33.71678 -53.45559 1516 ft 113 kts 353°
2026-05-05 14:58 -33.70969 -53.45865 1544 ft 107 kts 323°
2026-05-05 14:59 -33.70545 -53.46585 1530 ft 108 kts 290°
2026-05-05 14:59 -33.70444 -53.47484 1475 ft 105 kts 267°
2026-05-05 14:59 -33.70775 -53.48224 1559 ft 109 kts 220°
2026-05-05 14:59 -33.71533 -53.48313 1627 ft 115 kts 158°
2026-05-05 15:00 -33.71950 -53.47542 1691 ft 113 kts 86°
2026-05-05 15:00 -33.71793 -53.46997 1840 ft 99 kts 46°
2026-05-05 15:00 -33.70996 -53.46473 1836 ft 100 kts
2026-05-05 15:00 -33.70327 -53.46586 1905 ft 94 kts 332°
2026-05-05 15:01 -33.69822 -53.47075 1963 ft 95 kts 315°
2026-05-05 15:01 -33.69347 -53.47618 2029 ft 99 kts 315°
2026-05-05 15:01 -33.68880 -53.48220 2046 ft 94 kts 313°
2026-05-05 15:01 -33.68427 -53.48791 2028 ft 100 kts 314°
2026-05-05 15:02 -33.67916 -53.49418 1888 ft 112 kts 313°
2026-05-05 15:02 -33.67342 -53.50080 1713 ft 111 kts 315°
2026-05-05 15:02 -33.66811 -53.50733 1573 ft 108 kts 317°
2026-05-05 15:02 -33.66244 -53.51294 1500 ft 104 kts 319°
2026-05-05 15:03 -33.65693 -53.51840 1496 ft 101 kts 319°
2026-05-05 15:03 -33.65145 -53.52378 1501 ft 104 kts 320°
2026-05-05 15:03 -33.64592 -53.52928 1499 ft 104 kts 320°
2026-05-05 15:03 -33.64046 -53.53470 1491 ft 99 kts 319°
2026-05-05 15:04 -33.63516 -53.53969 1501 ft 96 kts 323°
2026-05-05 15:04 -33.62965 -53.54427 1494 ft 95 kts 323°
2026-05-05 15:04 -33.62416 -53.54884 1489 ft 97 kts 323°
2026-05-05 15:04 -33.61859 -53.55344 1504 ft 98 kts 325°
2026-05-05 15:05 -33.60719 -53.56312 1500 ft 100 kts 323°
2026-05-05 15:05 -33.60163 -53.56781 1501 ft 96 kts 323°
2026-05-05 15:05 -33.59615 -53.57232 1511 ft 97 kts 326°
2026-05-05 15:06 -33.59020 -53.57665 1501 ft 100 kts 327°
2026-05-05 15:06 -33.58430 -53.58097 1495 ft 98 kts 326°
2026-05-05 15:06 -33.57847 -53.58525 1510 ft 102 kts 327°
2026-05-05 15:06 -33.57230 -53.58983 1504 ft 106 kts 326°
2026-05-05 15:07 -33.56609 -53.59440 1500 ft 104 kts 327°
2026-05-05 15:07 -33.55996 -53.59888 1503 ft 104 kts 327°
2026-05-05 15:07 -33.55392 -53.60327 1494 ft 99 kts 326°
2026-05-05 15:07 -33.54798 -53.60759 1504 ft 102 kts 327°
2026-05-05 15:08 -33.54182 -53.61208 1503 ft 105 kts 326°
2026-05-05 15:08 -33.53550 -53.61662 1510 ft 107 kts 329°
2026-05-05 15:08 -33.52882 -53.62074 1497 ft 107 kts 330°
2026-05-05 15:08 -33.52226 -53.62482 1494 ft 104 kts 330°
2026-05-05 15:09 -33.51600 -53.62869 1491 ft 101 kts 330°
2026-05-05 15:09 -33.50967 -53.63262 1499 ft 105 kts 330°
2026-05-05 15:09 -33.50307 -53.63671 1501 ft 108 kts 330°
2026-05-05 15:09 -33.49642 -53.64084 1494 ft 105 kts 330°
2026-05-05 15:10 -33.48988 -53.64456 1493 ft 104 kts 335°
2026-05-05 15:10 -33.48337 -53.64786 1489 ft 99 kts 334°
2026-05-05 15:10 -33.47713 -53.65102 1489 ft 96 kts 334°
2026-05-05 15:10 -33.47100 -53.65398 1494 ft 94 kts 338°
2026-05-05 15:11 -33.46493 -53.65697 1492 ft 95 kts 334°
2026-05-05 15:11 -33.45879 -53.66006 1491 ft 96 kts 335°
2026-05-05 15:11 -33.45260 -53.66319 1492 ft 96 kts 334°
2026-05-05 15:11 -33.44656 -53.66622 1489 ft 93 kts 334°
2026-05-05 15:12 -33.44061 -53.66921 1489 ft 93 kts 334°
2026-05-05 15:12 -33.43461 -53.67220 1494 ft 95 kts 334°
2026-05-05 15:12 -33.42837 -53.67531 1503 ft 100 kts 334°
2026-05-05 15:12 -33.42190 -53.67855 1502 ft 101 kts 334°
2026-05-05 15:13 -33.41535 -53.68184 1500 ft 102 kts 334°
2026-05-05 15:13 -33.40886 -53.68512 1500 ft 100 kts 334°
2026-05-05 15:13 -33.40253 -53.68833 1501 ft 98 kts 334°
2026-05-05 15:13 -33.39629 -53.69147 1497 ft 97 kts 335°
2026-05-05 15:14 -33.39002 -53.69462 1497 ft 98 kts 334°
2026-05-05 15:14 -33.38370 -53.69777 1498 ft 99 kts 334°
2026-05-05 15:14 -33.37744 -53.70086 1500 ft 99 kts 334°
2026-05-05 15:14 -33.37107 -53.70401 1500 ft 97 kts 334°
2026-05-05 15:15 -33.36487 -53.70705 1499 ft 97 kts 334°
2026-05-05 15:15 -33.35858 -53.71016 1498 ft 99 kts 334°
2026-05-05 15:15 -33.35222 -53.71330 1497 ft 99 kts 334°
2026-05-05 15:15 -33.34591 -53.71642 1494 ft 98 kts 335°
2026-05-05 15:16 -33.33967 -53.71956 1495 ft 97 kts 334°
2026-05-05 15:16 -33.33342 -53.72270 1491 ft 98 kts 334°
2026-05-05 15:16 -33.32723 -53.72581 1496 ft 96 kts 334°
2026-05-05 15:16 -33.32103 -53.72890 1496 ft 97 kts 334°
2026-05-05 15:17 -33.31478 -53.73202 1493 ft 97 kts 334°
2026-05-05 15:17 -33.30849 -53.73515 1496 ft 99 kts 334°
2026-05-05 15:17 -33.30213 -53.73831 1498 ft 99 kts 334°
2026-05-05 15:17 -33.29574 -53.74149 1498 ft 100 kts 334°
2026-05-05 15:18 -33.28935 -53.74468 1496 ft 99 kts 334°
2026-05-05 15:18 -33.28299 -53.74785 1498 ft 99 kts 334°
2026-05-05 15:18 -33.27687 -53.75133 1493 ft 96 kts 329°
2026-05-05 15:18 -33.27095 -53.75510 1496 ft 97 kts 329°
2026-05-05 15:19 -33.26500 -53.75889 1496 ft 97 kts 329°
2026-05-05 15:19 -33.25904 -53.76269 1494 ft 97 kts 330°
2026-05-05 15:19 -33.25313 -53.76647 1497 ft 97 kts 329°
2026-05-05 15:19 -33.24715 -53.77031 1498 ft 98 kts 329°
2026-05-05 15:20 -33.24129 -53.77415 1495 ft 97 kts 327°
2026-05-05 15:20 -33.23559 -53.77832 1492 ft 95 kts 326°
2026-05-05 15:20 -33.22996 -53.78244 1491 ft 94 kts 326°
2026-05-05 15:20 -33.22441 -53.78650 1490 ft 93 kts 327°
2026-05-05 15:21 -33.21898 -53.79070 1485 ft 93 kts 322°
2026-05-05 15:21 -33.21378 -53.79520 1487 ft 92 kts 322°
2026-05-05 15:21 -33.20857 -53.79968 1487 ft 92 kts 322°
2026-05-05 15:21 -33.20332 -53.80422 1490 ft 95 kts 322°
2026-05-05 15:22 -33.19791 -53.80892 1493 ft 97 kts 322°
2026-05-05 15:22 -33.19246 -53.81367 1496 ft 97 kts 322°
2026-05-05 15:22 -33.18695 -53.81849 1497 ft 99 kts 322°
2026-05-05 15:22 -33.18139 -53.82334 1496 ft 99 kts 322°
2026-05-05 15:23 -33.17584 -53.82819 1495 ft 98 kts 322°
2026-05-05 15:23 -33.17043 -53.83291 1492 ft 95 kts 322°
2026-05-05 15:23 -33.16511 -53.83751 1491 ft 94 kts 323°
2026-05-05 15:23 -33.15986 -53.84188 1490 ft 91 kts 323°
2026-05-05 15:24 -33.15469 -53.84615 1494 ft 91 kts 323°
2026-05-05 15:24 -33.14940 -53.85054 1497 ft 94 kts 323°
2026-05-05 15:24 -33.14399 -53.85503 1498 ft 95 kts 323°
2026-05-05 15:24 -33.13852 -53.85962 1501 ft 97 kts 323°
2026-05-05 15:25 -33.13300 -53.86429 1500 ft 97 kts 323°
2026-05-05 15:25 -33.12750 -53.86894 1504 ft 97 kts 323°
2026-05-05 15:25 -33.12193 -53.87359 1505 ft 100 kts 323°
2026-05-05 15:25 -33.11615 -53.87835 1508 ft 101 kts 323°
2026-05-05 15:26 -33.11035 -53.88311 1505 ft 102 kts 323°
2026-05-05 15:26 -33.10457 -53.88784 1504 ft 100 kts 323°
2026-05-05 15:26 -33.09880 -53.89260 1503 ft 101 kts 323°
2026-05-05 15:26 -33.09277 -53.89687 1502 ft 101 kts 330°
2026-05-05 15:27 -33.08635 -53.90016 1502 ft 100 kts 336°
2026-05-05 15:27 -33.07986 -53.90299 1495 ft 99 kts 336°
2026-05-05 15:27 -33.07343 -53.90583 1494 ft 98 kts 336°
2026-05-05 15:27 -33.06707 -53.90872 1492 ft 97 kts 336°
2026-05-05 15:28 -33.06081 -53.91154 1490 ft 97 kts 339°
2026-05-05 15:28 -33.05434 -53.91372 1488 ft 96 kts 341°
2026-05-05 15:28 -33.04800 -53.91582 1490 ft 94 kts 341°
2026-05-05 15:28 -33.04174 -53.91780 1485 ft 93 kts 341°
2026-05-05 15:29 -33.03560 -53.91973 1486 ft 89 kts 341°
2026-05-05 15:29 -33.02964 -53.92157 1484 ft 88 kts 341°
2026-05-05 15:29 -33.02375 -53.92338 1495 ft 88 kts 341°
2026-05-05 15:29 -33.01782 -53.92522 1499 ft 88 kts 341°
2026-05-05 15:30 -33.01186 -53.92706 1499 ft 89 kts 341°
2026-05-05 15:30 -33.00579 -53.92893 1502 ft 91 kts 341°
2026-05-05 15:30 -32.99964 -53.93085 1503 ft 92 kts 341°
2026-05-05 15:30 -32.99344 -53.93279 1502 ft 92 kts 341°
2026-05-05 15:31 -32.98731 -53.93471 1499 ft 90 kts 341°
2026-05-05 15:31 -32.98117 -53.93662 1505 ft 92 kts 341°
2026-05-05 15:31 -32.97492 -53.93859 1505 ft 93 kts 341°
2026-05-05 15:31 -32.96863 -53.94055 1504 ft 93 kts 341°
2026-05-05 15:32 -32.96233 -53.94252 1506 ft 94 kts 341°
2026-05-05 15:32 -32.95604 -53.94449 1504 ft 93 kts 341°
2026-05-05 15:32 -32.94976 -53.94646 1508 ft 94 kts 341°
2026-05-05 15:32 -32.94340 -53.94845 1507 ft 96 kts 341°
2026-05-05 15:33 -32.93912 -53.94982 1512 ft 98 kts 341°
2026-05-05 15:33 -32.92996 -53.95276 1506 ft 105 kts 341°
2026-05-05 15:33 -32.92531 -53.95425 1505 ft 104 kts 341°
2026-05-05 15:33 -32.91838 -53.95648 1506 ft 102 kts 341°
2026-05-05 15:34 -32.91156 -53.95866 1509 ft 101 kts 341°
2026-05-05 15:34 -32.90480 -53.96083 1504 ft 100 kts 342°
2026-05-05 15:34 -32.89808 -53.96302 1507 ft 101 kts 341°
2026-05-05 15:34 -32.89130 -53.96521 1506 ft 101 kts 341°
2026-05-05 15:35 -32.88450 -53.96739 1511 ft 102 kts 341°
2026-05-05 15:35 -32.87766 -53.96956 1507 ft 102 kts 341°
2026-05-05 15:35 -32.86846 -53.97248 1510 ft 102 kts 341°
2026-05-05 15:35 -32.86399 -53.97391 1510 ft 100 kts 341°
2026-05-05 15:36 -32.85734 -53.97610 1513 ft 99 kts 341°
2026-05-05 15:36 -32.85069 -53.97830 1508 ft 99 kts 341°
2026-05-05 15:36 -32.84407 -53.98039 1509 ft 99 kts 341°
2026-05-05 15:36 -32.83738 -53.98245 1511 ft 99 kts 341°
2026-05-05 15:37 -32.83066 -53.98448 1511 ft 100 kts 341°
2026-05-05 15:37 -32.82393 -53.98648 1508 ft 99 kts 341°
2026-05-05 15:37 -32.81726 -53.98841 1511 ft 98 kts 341°
2026-05-05 15:37 -32.81059 -53.99033 1510 ft 99 kts 341°
2026-05-05 15:38 -32.80389 -53.99225 1510 ft 98 kts 342°
2026-05-05 15:38 -32.79824 -53.99381 1491 ft 69 kts 341°
2026-05-05 15:38 -32.79429 -53.99476 1446 ft 51 kts 341°
2026-05-05 15:38 -32.79086 -53.99548 1348 ft 48 kts 341°
2026-05-05 15:39 -32.78778 -53.99602 1280 ft 42 kts 341°
2026-05-05 15:39 -32.78487 -53.99639 1204 ft 41 kts 342°
2026-05-05 15:39 -32.78190 -53.99667 1321 ft 44 kts 339°
2026-05-05 15:39 -32.77857 -53.99706 1468 ft 54 kts 342°
2026-05-05 15:40 -32.77427 -53.99781 1651 ft 70 kts 343°
2026-05-05 15:40 -32.76940 -53.99893 1845 ft 74 kts 343°
2026-05-05 15:40 -32.76372 -54.00036 1768 ft 95 kts 343°
2026-05-05 15:40 -32.75674 -54.00285 1614 ft 112 kts 337°
2026-05-05 15:41 -32.74934 -54.00624 1513 ft 114 kts 336°
2026-05-05 15:41 -32.74223 -54.00945 1503 ft 103 kts 334°
2026-05-05 15:41 -32.73604 -54.01297 1492 ft 95 kts 332°
2026-05-05 15:41 -32.73020 -54.01622 1490 ft 92 kts 331°
2026-05-05 15:42 -32.72475 -54.01957 1491 ft 85 kts 330°
2026-05-05 15:42 -32.71956 -54.02273 1492 ft 84 kts 330°
2026-05-05 15:42 -32.71444 -54.02587 1495 ft 81 kts 330°
2026-05-05 15:42 -32.70947 -54.02891 1504 ft 81 kts 330°
2026-05-05 15:43 -32.70425 -54.03212 1503 ft 88 kts 330°
2026-05-05 15:43 -32.69875 -54.03551 1510 ft 90 kts 330°
2026-05-05 15:43 -32.69313 -54.03899 1515 ft 92 kts 330°
2026-05-05 15:43 -32.68744 -54.04252 1503 ft 92 kts 330°
2026-05-05 15:44 -32.68192 -54.04596 1497 ft 87 kts 330°
2026-05-05 15:44 -32.67656 -54.04930 1504 ft 88 kts 330°
2026-05-05 15:44 -32.67103 -54.05271 1506 ft 90 kts 330°
2026-05-05 15:44 -32.66535 -54.05624 1503 ft 96 kts 330°
2026-05-05 15:45 -32.65933 -54.05996 1505 ft 100 kts 330°
2026-05-05 15:45 -32.65315 -54.06381 1508 ft 101 kts 330°
2026-05-05 15:45 -32.64707 -54.06756 1503 ft 97 kts 330°
2026-05-05 15:45 -32.64098 -54.07111 1508 ft 99 kts 330°
2026-05-05 15:46 -32.63465 -54.07463 1506 ft 102 kts 330°
2026-05-05 15:46 -32.62819 -54.07825 1515 ft 103 kts 330°
2026-05-05 15:46 -32.62158 -54.08195 1512 ft 106 kts 330°
2026-05-05 15:46 -32.61494 -54.08571 1510 ft 106 kts 330°
2026-05-05 15:47 -32.60831 -54.08944 1508 ft 105 kts 330°
2026-05-05 15:47 -32.60394 -54.09189 1510 ft 105 kts 330°
2026-05-05 15:47 -32.59495 -54.09691 1510 ft 107 kts 330°
2026-05-05 15:47 -32.58820 -54.10065 1508 ft 107 kts 330°
2026-05-05 15:48 -32.58153 -54.10443 1505 ft 106 kts 330°
2026-05-05 15:48 -32.57488 -54.10822 1508 ft 107 kts 330°
2026-05-05 15:48 -32.56822 -54.11201 1506 ft 105 kts 330°
2026-05-05 15:48 -32.56168 -54.11571 1504 ft 104 kts 330°
2026-05-05 15:49 -32.55506 -54.11899 1503 ft 103 kts 337°
2026-05-05 15:49 -32.54817 -54.12153 1498 ft 104 kts 337°
2026-05-05 15:49 -32.54120 -54.12375 1501 ft 107 kts 346°
2026-05-05 15:49 -32.53381 -54.12494 1502 ft 107 kts 346°
2026-05-05 15:50 -32.52641 -54.12620 1499 ft 104 kts 347°
2026-05-05 15:50 -32.51944 -54.12671 1484 ft 99 kts 358°
2026-05-05 15:50 -32.51284 -54.12633 1493 ft 92 kts 357°
2026-05-05 15:50 -32.50653 -54.12596 1490 ft 89 kts 357°
2026-05-05 15:51 -32.50027 -54.12556 1491 ft 92 kts 357°
2026-05-05 15:51 -32.49384 -54.12519 1488 ft 93 kts 357°
2026-05-05 15:51 -32.48721 -54.12479 1493 ft 98 kts 357°
2026-05-05 15:51 -32.48024 -54.12441 1502 ft 103 kts 358°
2026-05-05 15:52 -32.47304 -54.12416 1498 ft 103 kts 357°
2026-05-05 15:52 -32.46592 -54.12393 1499 ft 102 kts 357°
2026-05-05 15:52 -32.45881 -54.12373 1500 ft 103 kts 357°
2026-05-05 15:52 -32.45151 -54.12365 1502 ft 106 kts 357°
2026-05-05 15:53 -32.44423 -54.12345 1497 ft 103 kts 357°
2026-05-05 15:53 -32.43708 -54.12304 1499 ft 103 kts 357°
2026-05-05 15:53 -32.42986 -54.12265 1497 ft 104 kts 358°
2026-05-05 15:53 -32.42261 -54.12251 1499 ft 104 kts 354°
2026-05-05 15:54 -32.41579 -54.12484 1508 ft 103 kts 333°
2026-05-05 15:54 -32.40930 -54.12864 1500 ft 104 kts 333°
2026-05-05 15:54 -32.40294 -54.13277 1500 ft 105 kts 329°
2026-05-05 15:54 -32.39667 -54.13719 1501 ft 105 kts 329°
2026-05-05 15:55 -32.39038 -54.14158 1498 ft 105 kts 329°
2026-05-05 15:55 -32.38411 -54.14598 1499 ft 105 kts 329°
2026-05-05 15:55 -32.37779 -54.15040 1496 ft 106 kts 329°
2026-05-05 15:55 -32.37146 -54.15485 1497 ft 106 kts 329°
2026-05-05 15:56 -32.36515 -54.15931 1500 ft 106 kts 329°
2026-05-05 15:56 -32.35893 -54.16395 1496 ft 106 kts 322°
2026-05-05 15:56 -32.35411 -54.17050 1498 ft 106 kts 309°
2026-05-05 15:56 -32.34934 -54.17704 1492 ft 103 kts 310°
2026-05-05 15:57 -32.34524 -54.18377 1496 ft 101 kts 300°
2026-05-05 15:57 -32.34182 -54.19094 1484 ft 99 kts 301°
2026-05-05 15:57 -32.33856 -54.19807 1490 ft 99 kts 300°
2026-05-05 15:57 -32.33540 -54.20527 1486 ft 98 kts 300°
2026-05-05 15:58 -32.33226 -54.21233 1489 ft 97 kts 300°
2026-05-05 15:58 -32.33214 -54.22030 1483 ft 105 kts 255°
2026-05-05 15:58 -32.33676 -54.22712 1480 ft 106 kts 231°
2026-05-05 15:58 -32.34195 -54.23285 1486 ft 100 kts 231°
2026-05-05 15:59 -32.34861 -54.23536 1426 ft 118 kts 164°
2026-05-05 15:59 -32.35280 -54.22753 1361 ft 121 kts 87°
2026-05-05 15:59 -32.35139 -54.21833 1321 ft 108 kts 65°
2026-05-05 15:59 -32.34853 -54.21069 1293 ft 99 kts 54°
2026-05-05 16:00 -32.34517 -54.20372 1271 ft 99 kts 54°
2026-05-05 16:00 -32.34174 -54.19693 1316 ft 96 kts 49°
2026-05-05 16:00 -32.33791 -54.19087 1252 ft 90 kts 38°
2026-05-05 16:00 -32.33279 -54.18755 1166 ft 85 kts 347°
2026-05-05 16:01 -32.32824 -54.19155 1097 ft 79 kts 318°
2026-05-05 16:01 -32.32848 -54.19777 919 ft 83 kts 247°
2026-05-05 16:01 -32.33139 -54.20374 603 ft 83 kts 243°
2026-05-05 16:01 -32.33425 -54.20933 412 ft 77 kts 245°
2026-05-05 16:02 -32.33661 -54.21413 370 ft 56 kts 245°
2026-05-05 16:02 -32.33785 -54.21678 370 ft 28 kts 238°
2026-05-05 16:02 -32.33884 -54.21864 370 ft 26 kts 238°
2026-05-05 16:02 -32.33981 -54.22054 370 ft 28 kts 239°
2026-05-05 16:03 -32.34009 -54.22201 370 ft 14 kts 317°
2026-05-05 16:03 -32.33924 -54.22262 370 ft 13 kts 318°
2026-05-05 16:03 -32.33946 -54.22336 370 ft 8 kts 240°
2026-05-05 16:03 -32.33944 -54.22348 370 ft 0 kts 40°
2026-05-05 16:04 -32.33944 -54.22347 370 ft 0 kts 65°
2026-05-05 16:07 -32.33944 -54.22348 370 ft 0 kts 65°
2026-05-05 16:12 -32.33945 -54.22348 370 ft 0 kts 65°
2026-05-05 16:20 -32.33945 -54.22349 370 ft 0 kts 65°